| time (UTC) | temp F | wind direction | speed MPH | gust MPH | rain 1hr in | rain 24hr in | rain mn in | humidity % | barometer mb |
| 20260903101005 | 72 | 269 | 0.0 | 0.0 | 0.00 | 0.00 | 0.36 | 91 | 1019.4 |
| 20260903100004 | 72 | 269 | 0.0 | 0.0 | 0.00 | 0.00 | 0.29 | 91 | 1019.1 |
| 20260903094004 | 72 | 269 | 0.0 | 0.0 | 0.00 | 0.00 | 0.28 | 91 | 1018.6 |
| 20260903093005 | 72 | 269 | 0.0 | 0.0 | 0.00 | 0.00 | 0.28 | 91 | 1019.2 |
| 20260903092004 | 72 | 269 | 0.0 | 0.0 | 0.00 | 0.00 | 0.27 | 91 | 1019.2 |
| 20260903090005 | 72 | 355 | 0.0 | 5.0 | 0.00 | 0.00 | 0.25 | 90 | 1019.5 |
| 20260903085005 | 72 | 101 | 0.0 | 0.0 | 0.00 | 0.00 | 0.25 | 90 | 1019.7 |
| 20260903083005 | 72 | 103 | 0.0 | 0.0 | 0.00 | 0.00 | 0.25 | 90 | 1018.5 |
| 20260903082004 | 72 | 101 | 0.0 | 0.0 | 0.00 | 0.00 | 0.25 | 90 | 1018.4 |
| 20260903081005 | 72 | 101 | 0.0 | 0.0 | 0.00 | 0.00 | 0.25 | 90 | 1018.2 |
| 20260903080004 | 72 | 102 | 0.0 | 0.0 | 0.00 | 0.00 | 0.25 | 90 | 1018.4 |
| 20260903075005 | 72 | 101 | 0.0 | 0.0 | 0.00 | 0.00 | 0.25 | 90 | 1018.3 |
| 20260903074004 | 72 | 100 | 0.0 | 0.0 | 0.00 | 0.00 | 0.25 | 90 | 1018.4 |
| 20260903073003 | 72 | 98 | 0.0 | 0.0 | 0.00 | 0.00 | 0.25 | 90 | 1018.3 |
| 20260903072004 | 72 | 97 | 0.0 | 0.0 | 0.00 | 0.00 | 0.25 | 90 | 1018.1 |
| 20260903071003 | 72 | 96 | 0.0 | 0.0 | 0.00 | 0.00 | 0.25 | 90 | 1018.2 |
| 20260903065004 | 72 | 96 | 0.0 | 1.0 | 0.00 | 0.00 | 0.25 | 90 | 1018.2 |
| 20260903063004 | 72 | 95 | 0.0 | 1.0 | 0.00 | 0.00 | 0.25 | 90 | 1018.7 |
| 20260903062004 | 72 | 94 | 1.0 | 5.0 | 0.00 | 0.00 | 0.21 | 90 | 1018.8 |
| 20260903061004 | 73 | 238 | 5.0 | 5.0 | 0.00 | 0.00 | 0.18 | 90 | 1019.1 |
| 20260903060004 | 73 | 169 | 1.0 | 2.0 | 0.00 | 0.00 | 0.17 | 90 | 1019.5 |
| 20260903055004 | 73 | 205 | 0.0 | 1.0 | 0.00 | 0.00 | 0.17 | 90 | 1018.6 |
| 20260903053003 | 73 | 197 | 0.0 | 4.0 | 0.00 | 0.00 | 0.16 | 90 | 1018.7 |
| 20260903051004 | 73 | 105 | 0.0 | 0.0 | 0.00 | 0.00 | 0.00 | 90 | 1018.3 |
| 20260903050003 | 73 | 105 | 0.0 | 0.0 | 0.00 | 0.00 | 0.00 | 90 | 1018.5 |
| 20260903045004 | 73 | 105 | 0.0 | 0.0 | 0.00 | 0.00 | 0.00 | 90 | 1018.3 |
| 20260903044005 | 73 | 105 | 0.0 | 0.0 | 0.00 | 0.00 | 0.00 | 90 | 1018.5 |
| 20260903043004 | 73 | 105 | 0.0 | 0.0 | 0.00 | 0.00 | 0.00 | 90 | 1018.5 |
| 20260903042004 | 73 | 103 | 0.0 | 0.0 | 0.00 | 0.00 | 0.00 | 90 | 1018.5 |
| 20260903041004 | 73 | 99 | 0.0 | 0.0 | 0.00 | 0.00 | 0.00 | 90 | 1019.0 |
| 20260903040004 | 73 | 99 | 0.0 | 0.0 | 0.00 | 0.00 | 0.63 | 90 | 1019.2 |
| 20260903031004 | 73 | 98 | 0.0 | 0.0 | 0.00 | 0.00 | 0.63 | 90 | 1019.7 |
| 20260903030004 | 73 | 98 | 0.0 | 0.0 | 0.00 | 0.00 | 0.63 | 90 | 1019.4 |
| 20260903025005 | 73 | 98 | 0.0 | 0.0 | 0.00 | 0.00 | 0.63 | 90 | 1019.5 |
| 20260903024004 | 73 | 98 | 0.0 | 0.0 | 0.00 | 0.00 | 0.63 | 90 | 1019.4 |
| 20260903023005 | 73 | 98 | 0.0 | 2.0 | 0.00 | 0.00 | 0.63 | 90 | 1019.2 |
| 20260903022005 | 73 | 101 | 1.0 | 5.0 | 0.00 | 0.00 | 0.63 | 90 | 1018.7 |
| 20260903020004 | 74 | 127 | 1.0 | 7.0 | 0.00 | 0.00 | 0.63 | 90 | 1019.3 |
| 20260903014004 | 74 | 130 | 0.0 | 0.0 | 0.00 | 0.00 | 0.63 | 90 | 1019.4 |
| 20260903013005 | 74 | 131 | 0.0 | 0.0 | 0.00 | 0.00 | 0.63 | 90 | 1019.1 |
| 20260903012004 | 74 | 130 | 0.0 | 0.0 | 0.00 | 0.00 | 0.63 | 90 | 1018.9 |
| 20260903011004 | 74 | 130 | 0.0 | 0.0 | 0.00 | 0.00 | 0.63 | 90 | 1018.9 |
| 20260903010004 | 74 | 130 | 0.0 | 0.0 | 0.00 | 0.00 | 0.63 | 90 | 1018.8 |
| 20260903005004 | 74 | 130 | 0.0 | 0.0 | 0.00 | 0.00 | 0.63 | 90 | 1018.9 |
| 20260903004005 | 74 | 130 | 0.0 | 0.0 | 0.00 | 0.00 | 0.63 | 90 | 1018.9 |
| 20260903003004 | 74 | 130 | 0.0 | 0.0 | 0.00 | 0.00 | 0.63 | 90 | 1019.0 |
| 20260903001004 | 74 | 131 | 0.0 | 0.0 | 0.00 | 0.00 | 0.63 | 90 | 1018.7 |
| 20260903000005 | 75 | 131 | 0.0 | 0.0 | 0.00 | 0.00 | 0.63 | 90 | 1018.7 |
| 20260902235004 | 75 | 131 | 0.0 | 0.0 | 0.00 | 0.00 | 0.63 | 90 | 1018.7 |
| 20260902234004 | 75 | 131 | 0.0 | 0.0 | 0.00 | 0.00 | 0.63 | 90 | 1018.7 |
| 20260902233004 | 75 | 131 | 0.0 | 0.0 | 0.00 | 0.00 | 0.63 | 90 | 1018.7 |
| 20260902232004 | 75 | 131 | 0.0 | 0.0 | 0.00 | 0.00 | 0.63 | 90 | 1018.6 |
| 20260902231005 | 75 | 131 | 0.0 | 0.0 | 0.00 | 0.00 | 0.63 | 90 | 1018.7 |
| 20260902230004 | 76 | 141 | 0.0 | 0.0 | 0.00 | 0.00 | 0.63 | 90 | 1018.7 |
| 20260902225004 | 76 | 141 | 0.0 | 0.0 | 0.00 | 0.00 | 0.63 | 90 | 1018.7 |
| 20260902224004 | 76 | 141 | 0.0 | 0.0 | 0.00 | 0.00 | 0.63 | 90 | 1018.7 |
| 20260902223005 | 76 | 141 | 0.0 | 0.0 | 0.00 | 0.00 | 0.63 | 90 | 1018.9 |
| 20260902222004 | 75 | 141 | 0.0 | 0.0 | 0.00 | 0.00 | 0.63 | 90 | 1019.1 |
| 20260902221005 | 75 | 141 | 0.0 | 0.0 | 0.00 | 0.00 | 0.63 | 90 | 1019.2 |
| 20260902220004 | 75 | 141 | 0.0 | 0.0 | 0.00 | 0.00 | 0.63 | 90 | 1019.4 |
| 20260902214004 | 75 | 143 | 0.0 | 2.0 | 0.00 | 0.00 | 0.63 | 90 | 1019.2 |
| 20260902213004 | 75 | 137 | 0.0 | 2.0 | 0.00 | 0.00 | 0.63 | 90 | 1019.1 |
| 20260902211005 | 75 | 179 | 0.0 | 2.0 | 0.00 | 0.00 | 0.63 | 90 | 1019.1 |
| 20260902210005 | 75 | 180 | 0.0 | 0.0 | 0.00 | 0.00 | 0.63 | 90 | 1019.2 |
| 20260902205004 | 75 | 180 | 0.0 | 0.0 | 0.00 | 0.00 | 0.63 | 90 | 1019.4 |
| 20260902204004 | 75 | 180 | 0.0 | 0.0 | 0.00 | 0.00 | 0.63 | 90 | 1019.8 |
| 20260902202004 | 75 | 179 | 0.0 | 1.0 | 0.00 | 0.00 | 0.63 | 90 | 1019.2 |
| 20260902201005 | 75 | 180 | 1.0 | 2.0 | 0.00 | 0.00 | 0.63 | 90 | 1018.8 |
| 20260902200005 | 75 | 94 | 0.0 | 1.0 | 0.00 | 0.00 | 0.63 | 90 | 1019.1 |
| 20260902195004 | 74 | 93 | 0.0 | 1.0 | 0.00 | 0.00 | 0.63 | 90 | 1018.9 |
| 20260902194004 | 74 | 93 | 0.0 | 1.0 | 0.00 | 0.00 | 0.63 | 90 | 1019.1 |
| 20260902193005 | 74 | 92 | 0.0 | 1.0 | 0.00 | 0.00 | 0.63 | 90 | 1019.2 |
| 20260902192004 | 74 | 92 | 0.0 | 1.0 | 0.00 | 0.00 | 0.63 | 90 | 1019.1 |
| 20260902185005 | 73 | 92 | 0.0 | 2.0 | 0.00 | 0.00 | 0.63 | 90 | 1019.0 |
| 20260902184005 | 73 | 91 | 1.0 | 2.0 | 0.00 | 0.00 | 0.63 | 89 | 1018.8 |
| 20260902183004 | 73 | 90 | 1.0 | 5.0 | 0.00 | 0.00 | 0.62 | 89 | 1018.8 |
| 20260902182004 | 73 | 108 | 0.0 | 4.0 | 0.00 | 0.00 | 0.61 | 89 | 1019.8 |
| 20260902181004 | 74 | 64 | 0.0 | 2.0 | 0.00 | 0.00 | 0.59 | 89 | 1020.2 |
| 20260902180006 | 74 | 123 | 0.0 | 2.0 | 0.00 | 0.00 | 0.56 | 89 | 1021.0 |
| 20260902175005 | 74 | 96 | 4.0 | 7.0 | 0.00 | 0.00 | 0.54 | 89 | 1021.6 |
| 20260902174005 | 75 | 207 | 0.0 | 2.0 | 0.00 | 0.00 | 0.09 | 90 | 1022.5 |
| 20260902173005 | 75 | 113 | 0.0 | 0.0 | 0.00 | 0.00 | 0.03 | 90 | 1021.1 |
| 20260902172004 | 75 | 113 | 0.0 | 0.0 | 0.00 | 0.00 | 0.03 | 90 | 1020.9 |
| 20260902171004 | 75 | 113 | 0.0 | 0.0 | 0.00 | 0.00 | 0.03 | 90 | 1021.1 |
| 20260902170005 | 75 | 113 | 0.0 | 0.0 | 0.00 | 0.00 | 0.03 | 90 | 1021.2 |
| 20260902164005 | 74 | 113 | 0.0 | 0.0 | 0.00 | 0.00 | 0.03 | 90 | 1020.9 |
| 20260902163004 | 74 | 76 | 0.0 | 0.0 | 0.00 | 0.00 | 0.03 | 90 | 1020.5 |
| 20260902162005 | 74 | 149 | 0.0 | 0.0 | 0.00 | 0.00 | 0.03 | 90 | 1020.4 |
| 20260902161003 | 74 | 150 | 0.0 | 0.0 | 0.00 | 0.00 | 0.03 | 90 | 1020.7 |
| 20260902160005 | 74 | 168 | 0.0 | 0.0 | 0.00 | 0.00 | 0.03 | 90 | 1020.4 |
| 20260902155005 | 74 | 155 | 0.0 | 0.0 | 0.00 | 0.00 | 0.03 | 90 | 1020.6 |
| 20260902153004 | 73 | 158 | 0.0 | 0.0 | 0.00 | 0.00 | 0.03 | 90 | 1020.6 |
| 20260902152004 | 73 | 159 | 0.0 | 0.0 | 0.00 | 0.00 | 0.03 | 90 | 1020.7 |
| 20260902151005 | 73 | 159 | 0.0 | 0.0 | 0.00 | 0.00 | 0.03 | 90 | 1020.9 |
| 20260902150005 | 73 | 158 | 0.0 | 0.0 | 0.00 | 0.00 | 0.03 | 90 | 1020.9 |
| 20260902145004 | 73 | 158 | 0.0 | 0.0 | 0.00 | 0.00 | 0.03 | 90 | 1021.3 |
| 20260902144004 | 73 | 161 | 0.0 | 1.0 | 0.00 | 0.00 | 0.03 | 90 | 1021.2 |
| 20260902143005 | 73 | 161 | 0.0 | 1.0 | 0.00 | 0.00 | 0.03 | 90 | 1021.1 |
| 20260902142004 | 73 | 119 | 1.0 | 2.0 | 0.00 | 0.00 | 0.03 | 90 | 1021.0 |
| 20260902140005 | 73 | 120 | 0.0 | 1.0 | 0.00 | 0.00 | 0.03 | 90 | 1020.6 |
| 20260902135004 | 73 | 84 | 0.0 | 4.0 | 0.00 | 0.00 | 0.03 | 90 | 1020.6 |
| 20260902133005 | 73 | 133 | 0.0 | 2.0 | 0.00 | 0.00 | 0.03 | 90 | 1020.3 |
| 20260902132005 | 73 | 152 | 0.0 | 2.0 | 0.00 | 0.00 | 0.03 | 90 | 1020.2 |
| 20260902131004 | 73 | 210 | 0.0 | 2.0 | 0.00 | 0.00 | 0.03 | 90 | 1020.2 |
| 20260902125004 | 72 | 153 | 0.0 | 1.0 | 0.00 | 0.00 | 0.03 | 89 | 1020.4 |
| 20260902123004 | 72 | 154 | 0.0 | 2.0 | 0.00 | 0.00 | 0.03 | 89 | 1020.2 |
| 20260902122004 | 72 | 155 | 0.0 | 2.0 | 0.00 | 0.00 | 0.03 | 89 | 1020.1 |
| 20260902121005 | 72 | 179 | 0.0 | 0.0 | 0.00 | 0.00 | 0.03 | 89 | 1019.9 |
| 20260902115004 | 72 | 180 | 0.0 | 0.0 | 0.00 | 0.00 | 0.03 | 89 | 1019.9 |
| 20260902113005 | 72 | 175 | 0.0 | 0.0 | 0.00 | 0.00 | 0.03 | 89 | 1019.8 |
| 20260902111005 | 72 | 197 | 0.0 | 0.0 | 0.00 | 0.00 | 0.03 | 89 | 1019.6 |
| 20260902110007 | 72 | 196 | 0.0 | 0.0 | 0.00 | 0.00 | 0.03 | 89 | 1019.5 |
| 20260902104004 | 72 | 196 | 0.0 | 0.0 | 0.00 | 0.00 | 0.03 | 88 | 1019.5 |
| 20260902102004 | 72 | 196 | 0.0 | 0.0 | 0.00 | 0.00 | 0.03 | 88 | 1019.3 |